Location: Helds Island Access
(38.5526°N, 91.5997°W)
Time: 02:21:17
(UTC-05:00)

Daily predictions for brighter satellites

Satellite Brightness Start Highest point End
(mag) Time Altitude Azimuth Time Altitude Azimuth Time Altitude Azimuth
ATLAS 3B R/B 4.0 01:25:38 39° N 01:25:38 39° N 01:30:24 10° NNE
SL-16 R/B 4.3 02:19:50 21° N 02:19:50 21° N 02:21:58 10° N
CZ-4C R/B 4.1 02:26:08 26° N 02:26:08 26° N 02:29:04 10° NNE
ATLAS 5 CENTAUR R/B 4.4 02:38:58 17° ENE 02:38:58 17° ENE 02:40:20 10° NE
SL-16 R/B 4.3 02:41:16 22° E 02:43:18 26° ENE 02:48:15 10° N
CENTAUR R/B 4.1 02:47:14 25° E 02:47:14 25° E 02:51:18 10° NE
NOSS 3-2 (C) 4.3 02:58:41 47° N 02:58:41 47° N 03:03:29 10° NNE
CZ-2D R/B 3.9 02:57:26 10° NE 03:00:55 24° E 03:00:55 24° E
Resurs 1-4 Rocket 3.1 03:20:35 10° NNE 03:24:59 41° E 03:24:59 41° E
Cosmos 1943 4.1 03:28:03 42° N 03:28:03 42° N 03:31:58 10° NNE
Okean O Rocket 4.3 03:28:59 10° ENE 03:31:10 13° E 03:32:23 12° ESE
Cosmos 2369 Rocket 4.0 03:32:14 10° NNW 03:33:56 20° NNW 03:33:56 20° NNW
COSMOS 2406 4.2 03:37:42 38° ESE 03:38:08 39° ESE 03:43:25 10° NE
Cosmos 1455 4.5 03:43:33 23° NNE 03:43:33 23° NNE 03:45:08 10° NNE
Cosmos 2315 Rocket 3.9 03:47:44 85° NW 03:47:44 85° NW 03:53:56 10° N
Cosmos 1943 Rocket 2.4 03:43:28 10° NNW 03:49:08 67° ENE 03:50:12 55° ESE
Cosmos 1862 Rocket 4.4 03:57:10 47° NNE 03:57:10 47° NNE 04:00:23 10° NNE
Atlas Centaur 2 4.1 03:59:34 11° SE 03:59:34 11° SE 03:59:51 10° ESE
SeaSat 1 4.5 03:55:26 10° ESE 03:59:33 27° NE 04:03:40 10° N
ERS-2 4.4 03:58:53 10° N 04:00:05 19° N 04:00:05 19° N
USA 234 3.1 04:00:53 10° NE 04:07:27 89° NW 04:08:50 60° SW
IRS-1D 3.8 04:07:07 10° N 04:11:54 56° NW 04:11:54 56° NW
Cosmos 1656 Rocket 4.4 04:08:54 10° NNW 04:14:10 49° ENE 04:19:23 10° SE
Cosmos 1825 3.3 04:11:15 10° N 04:14:52 41° E 04:15:22 38° E
ARIANE 5 R/B 3.0 04:10:39 10° N 04:15:13 48° NW 04:15:13 48° NW
Abrixas rocket 4.4 04:19:35 23° N 04:19:56 24° NNE 04:22:43 10° ENE
ATLAS 5 CENTAUR R/B 2.9 04:20:31 32° NW 04:20:31 32° NW 04:25:09 10° NNE
Cosmos 1733 Rocket 4.2 04:16:15 10° NNW 04:18:46 32° NNW 04:18:46 32° NNW
Cosmos 389 Rocket 4.1 04:26:32 26° NNW 04:26:32 26° NNW 04:28:18 10° N
MOS 1-B 4.2 04:19:08 10° NNE 04:24:55 80° WNW 04:26:27 51° SSW
Nadezhda 1 Rocket 4.3 04:21:21 21° S 04:25:35 65° E 04:31:53 10° NNE
SL-16 R/B 2.6 04:26:22 49° WSW 04:26:34 49° W 04:32:34 10° NNW
PSLV R/B 4.4 04:28:59 41° E 04:28:59 41° E 04:31:21 10° ESE
CZ-2D R/B 3.4 04:30:02 10° N 04:34:22 73° WNW 04:34:34 72° WSW
Cosmos 1174 4.4 04:34:34 55° W 04:35:12 60° WNW 04:39:36 10° NNE
CENTAUR R/B 2.8 04:34:26 41° W 04:36:09 52° NW 04:42:51 10° NNE
ARGOS Delta rocket 3.5 04:32:42 10° N 04:37:06 81° WNW 04:37:54 59° SSW
AVUM R/B 4.1 04:37:18 46° ESE 04:37:18 46° ESE 04:40:26 10° NE
CZ-2D R/B 2.7 04:37:01 10° N 04:41:49 37° WNW 04:42:14 36° W
SL-08 ROCKET BODY 4.3 04:36:22 10° N 04:42:27 81° W 04:48:35 10° S
Cosmos 1190 Rocket 4.0 04:40:09 34° S 04:42:28 78° ESE 04:47:40 10° NNE
BREEZE-M DEB (TANK) 2.9 04:45:01 64° ESE 04:45:01 64° ESE 04:48:36 10° ENE
COSMOS 2487 3.0 04:44:02 42° SSE 04:44:55 55° ESE 04:48:28 10° NNE
CZ-2C R/B 3.6 04:42:49 10° SSE 04:47:15 82° ENE 04:51:42 10° N
Cosmos 1992 Rocket 3.8 04:42:06 10° NNW 04:47:20 74° WSW 04:52:33 10° S
Cosmos 1908 Rocket 3.5 04:48:04 10° NNW 04:52:22 57° W 04:53:33 42° SSW
SL-27 R/B 4.2 04:53:46 22° NW 04:53:46 22° NW 04:55:55 10° N
Cosmos 2074 Rocket 4.0 04:48:17 10° NNW 04:54:23 58° W 05:00:00 12° SSW
Cosmos 2327 Rocket 4.5 04:50:14 10° NNW 04:56:13 58° W 05:02:10 10° S
UNKNOWN OBJECT B 4.1 04:55:04 10° NNW 04:57:28 23° NW 04:57:28 23° NW
Thor Agena Rocket 3.9 04:53:56 10° SSE 04:59:01 67° ENE 05:04:13 10° N
Cosmos 2154 Rocket 4.2 04:54:47 10° N 05:01:09 77° E 05:07:30 10° S
Cosmos 2184 Rocket 4.1 04:55:48 10° NNW 05:01:58 53° W 05:08:05 10° SSW
Resurs 1-4 Rocket 3.3 05:01:06 10° NNW 05:05:08 23° WNW 05:06:03 22° W
Cosmos 1862 3.8 05:01:49 10° NNW 05:05:30 37° W 05:05:48 37° WSW
USA 32 4.0 05:02:38 21° SSW 05:06:10 62° W 05:11:22 10° N
Meteor 1-26 Rocket 4.3 05:00:40 12° S 05:06:11 86° W 05:12:07 10° N
Okean O Rocket 1.8 05:03:29 10° N 05:07:49 51° WNW 05:09:52 28° SW
Cosmos 2221 Rocket 3.8 05:06:39 30° SW 05:08:29 50° W 05:12:47 10° N
Cosmos 1703 Rocket 3.9 05:07:23 31° SW 05:08:59 45° W 05:13:18 10° N
Meteor 2-10 Rocket 4.3 05:07:41 10° S 05:13:23 60° E 05:18:58 10° NNE
ADEOS II 2.8 05:09:11 10° NNE 05:14:21 55° E 05:19:29 10° S
Okean-O 3.0 05:14:17 10° NNE 05:18:42 64° E 05:23:06 10° S
Cosmos 676 Rocket 3.9 05:16:20 14° SSW 05:20:49 79° WNW 05:26:03 10° NNE
COSMOS 2406 4.2 05:19:48 21° W 05:22:30 29° WNW 05:27:30 10° N
Cosmos 1408 3.8 05:20:06 10° NW 05:23:08 23° W 05:23:14 23° W
Meteor 1-14 Rocket 4.3 05:18:43 10° NNW 05:24:35 79° W 05:30:32 10° S
PSLV R/B 3.6 05:21:01 10° NNE 05:25:26 87° ESE 05:29:49 10° SSW
Cosmos 2341 Rocket 4.0 05:20:50 10° N 05:27:10 86° W 05:33:31 10° S
MOZ.5/SAFIR/RUBIN 5/SL-8 4.4 05:23:43 10° SSW 05:27:51 32° W 05:32:02 10° NNW
CZ-4B R/B 3.4 05:24:42 10° N 05:29:45 47° WNW 05:34:27 12° SW
Cosmos 1943 Rocket 3.7 05:29:07 10° WNW 05:31:30 15° W 05:31:30 15° W
Cosmos 2151 Rocket 3.7 05:28:35 10° N 05:32:59 78° E 05:37:23 10° S
CZ-4B DEB 4.5 05:28:56 10° N 05:34:10 47° WNW 05:39:22 10° SW
Okean 1-7 3.7 05:31:49 16° SW 05:34:49 36° WNW 05:38:51 10° N
Cosmos 407 Rocket 4.0 05:31:50 16° SW 05:35:42 42° WNW 05:40:43 10° N
Cosmos 962 Rocket 4.5 05:29:30 10° N 05:35:48 74° W 05:41:59 10° S
SeaSat 1 2.9 05:32:19 10° S 05:36:53 38° WSW 05:41:29 10° NW
Cosmos 1606 4.4 05:35:12 10° SSE 05:38:49 37° E 05:42:26 10° NNE
Meteor 2-13 Rocket 4.4 05:33:56 10° N 05:39:59 76° W 05:46:01 10° S
GPS 2-05 Rocket1 3.1 05:38:31 18° WSW 05:40:47 50° S 05:43:59 10° E
CZ-4B R/B 3.8 05:38:46 10° NNW 05:41:55 26° WNW 05:44:29 14° WSW
MOS 1 Rocket 4.2 05:37:54 10° NNE 05:42:01 46° E 05:46:11 10° S
Cosmos 1782 3.1 05:39:00 10° S 05:43:01 74° E 05:47:04 10° N
Atlas Centaur 2 2.8 05:42:14 13° SW 05:45:22 30° S 05:49:50 10° ESE
Cosmos 2082 Rocket 3.0 05:40:00 10° S 05:45:32 55° ESE 05:51:07 10° NNE
Cosmos 1140 Rocket 3.4 05:44:23 10° SSW 05:49:29 83° WNW 05:54:39 10° NNE
USA 234 4.4 05:44:21 10° NNE 05:49:55 31° NNW 05:55:28 10° W
Cosmos 1825 4.2 05:49:05 10° WNW 05:50:03 11° W 05:50:13 11° W
EXPRESS MD2 4.3 05:48:24 10° SSW 05:50:53 35° SE 05:55:02 10° ENE
Cosmos 1833 Rocket 3.6 05:49:11 10° S 05:54:36 52° ESE 06:00:02 10° NNE
Cosmos 2218 Rocket 4.2 05:49:06 10° N 05:55:15 78° E 06:01:24 10° S
NAVSTAR 52 R/B(PAM-D 4.1 05:54:56 15° WSW 05:55:53 22° SSW 05:57:19 10° SE
Okean 2 Rocket 4.2 05:53:02 10° NW 05:56:39 24° W 06:00:15 10° SW
Abrixas rocket 2.2 05:53:53 10° WNW 05:57:12 65° SW 06:00:31 10° SE
Okean 1 Rocket 4.2 05:53:45 10° N 05:57:59 49° E 06:02:13 10° SSE
Geosat 4.1 05:56:05 10° NNE 06:01:02 59° WNW 06:05:58 10° SW
Cosmos 614 Rocket 4.0 05:58:52 10° SSW 06:03:59 89° ESE 06:09:05 10° NNE
PSLV R/B 4.4 06:02:15 10° W 06:05:13 27° SSW 06:08:08 10° SSE
Cosmos 1674 Rocket 3.6 06:02:16 10° SSW 06:06:41 66° W 06:11:05 10° N
Cosmos 1741 Rocket 4.0 06:01:36 10° SSW 06:06:51 83° WNW 06:12:06 10° NNE
Ariane Rocket 3.7 06:03:51 10° NNE 06:08:53 60° ESE 06:13:54 10° S
ADEOS Rocket 3.9 06:04:11 10° N 06:11:34 49° WNW 06:18:51 10° SW
CZ-3 R/B 4.4 06:20:48 10° W 06:39:12 20° WSW 06:47:15 10° SSW
